Air Quality Table

TIMESTAMP NO2 SO2 O3 PM10 PM2.5 CO TEMP HUM AIRPRES WS WD NO BENZENE
2021-11-30 01:00 1.72 µg/m3 0.49 µg/m3 75.43 µg/m3 12.66 µg/m3 6.77 µg/m3 0.15 mg/m3 12.75 °C 64.25 % 1,013.80 mbar 4.85 m/s 251.77 Deg 0.1 µg/m3 0.47 µg/m3
2021-11-30 00:00 1.88 µg/m3 0.55 µg/m3 79.14 µg/m3 11.05 µg/m3 5.76 µg/m3 0.15 mg/m3 12.27 °C 65.44 % 1,013.49 mbar 5.04 m/s 245.1 Deg 0.16 µg/m3 0.58 µg/m3
2021-11-29 23:00 3.39 µg/m3 0.54 µg/m3 79.1 µg/m3 8.44 µg/m3 5.11 µg/m3 0.15 mg/m3 11.2 °C 71.29 % 1,013.35 mbar 5.8 m/s 254.7 Deg 0.44 µg/m3 0.47 µg/m3
2021-11-29 22:00 4.42 µg/m3 0.55 µg/m3 77.84 µg/m3 13.06 µg/m3 8.05 µg/m3 0.16 mg/m3 11.62 °C 71.48 % 1,012.48 mbar 5.15 m/s 256.9 Deg 0.65 µg/m3 0.52 µg/m3
2021-11-29 21:00 8.2 µg/m3 0.56 µg/m3 73.81 µg/m3 15.08 µg/m3 9.69 µg/m3 0.17 mg/m3 12.03 °C 71.22 % 1,011.54 mbar 4.8 m/s 259.47 Deg 1.85 µg/m3 0.65 µg/m3
2021-11-29 20:00 7.6 µg/m3 0.54 µg/m3 74.47 µg/m3 20.75 µg/m3 8.78 µg/m3 0.16 mg/m3 13.93 °C 55.53 % 1,010.32 mbar 6.46 m/s 249.42 Deg 1.84 µg/m3 0.79 µg/m3
2021-11-29 19:00 11 µg/m3 0.56 µg/m3 70.44 µg/m3 25.28 µg/m3 8.76 µg/m3 0.17 mg/m3 14.93 °C 48.46 % 1,009.11 mbar 6.25 m/s 247.1 Deg 2.72 µg/m3 0.84 µg/m3
2021-11-29 18:00 13.32 µg/m3 0.54 µg/m3 65.53 µg/m3 23.03 µg/m3 8.56 µg/m3 0.2 mg/m3 14.92 °C 55.67 % 1,008.05 mbar 5.75 m/s 240.8 Deg 3.69 µg/m3 1.33 µg/m3
2021-11-29 17:00 15.82 µg/m3 0.55 µg/m3 61.39 µg/m3 14.35 µg/m3 6.72 µg/m3 0.2 mg/m3 13.42 °C 68.4 % 1,007.78 mbar 4.73 m/s 232.4 Deg 3.89 µg/m3 1.23 µg/m3
2021-11-29 16:00 15.71 µg/m3 0.57 µg/m3 61.03 µg/m3 28.97 µg/m3 9.95 µg/m3 0.21 mg/m3 14.53 °C 59.65 % 1,006.92 mbar 5.72 m/s 235.53 Deg 4.36 µg/m3 0.87 µg/m3
2021-11-29 15:00 13.64 µg/m3 0.56 µg/m3 63.69 µg/m3 37.33 µg/m3 10.75 µg/m3 0.18 mg/m3 15.71 °C 51.35 % 1,006.32 mbar 5.96 m/s 224.13 Deg 3.51 µg/m3 0.91 µg/m3
2021-11-29 14:00 13.35 µg/m3 0.55 µg/m3 63.14 µg/m3 34.03 µg/m3 10.13 µg/m3 0.17 mg/m3 15.56 °C 52.35 % 1,006.34 mbar 6.14 m/s 222.87 Deg 4.07 µg/m3 0.65 µg/m3
2021-11-29 13:00 10.46 µg/m3 0.57 µg/m3 65.65 µg/m3 32.14 µg/m3 9.53 µg/m3 0.17 mg/m3 15.57 °C 51.61 % 1,007.06 mbar 6.86 m/s 222.18 Deg 2.61 µg/m3 0.82 µg/m3
2021-11-29 12:00 11.52 µg/m3 0.58 µg/m3 63.31 µg/m3 38.14 µg/m3 9.72 µg/m3 0.17 mg/m3 15.84 °C 49.65 % 1,007.67 mbar 5.88 m/s 222.6 Deg 3.76 µg/m3 0.76 µg/m3
2021-11-29 11:00 13.48 µg/m3 0.57 µg/m3 60.99 µg/m3 30.93 µg/m3 8.48 µg/m3 0.18 mg/m3 15.58 °C 48.79 % 1,007.96 mbar 5.26 m/s 225.05 Deg 4.47 µg/m3 0.86 µg/m3
2021-11-29 10:00 17.85 µg/m3 0.55 µg/m3 56.19 µg/m3 36.17 µg/m3 8.77 µg/m3 0.19 mg/m3 15.18 °C 49.58 % 1,008.16 mbar 4.55 m/s 225.6 Deg 6.96 µg/m3 1 µg/m3
2021-11-29 09:00 18.16 µg/m3 0.56 µg/m3 56.45 µg/m3 27.91 µg/m3 7.86 µg/m3 0.2 mg/m3 14.7 °C 50.89 % 1,008.07 mbar 5.01 m/s 224.32 Deg 5.89 µg/m3 1.08 µg/m3
2021-11-29 08:00 24.99 µg/m3 0.55 µg/m3 50.26 µg/m3 25.08 µg/m3 6.8 µg/m3 0.22 mg/m3 14.45 °C 50.63 % 1,007.58 mbar 3.97 m/s 226.68 Deg 8.18 µg/m3 1.08 µg/m3
2021-11-29 07:00 16.55 µg/m3 0.49 µg/m3 56.67 µg/m3 12.75 µg/m3 4.52 µg/m3 0.2 mg/m3 14.41 °C 49.53 % 1,006.90 mbar 3.97 m/s 225.7 Deg 3.85 µg/m3 0.68 µg/m3
2021-11-29 06:00 7.02 µg/m3 0.4 µg/m3 63.39 µg/m3 9.68 µg/m3 3.84 µg/m3 0.15 mg/m3 14.5 °C 51.76 % 1,006.44 mbar 3.48 m/s 232.22 Deg 1.07 µg/m3 0.5 µg/m3
2021-11-29 05:00 2.91 µg/m3 0.42 µg/m3 68.23 µg/m3 9.56 µg/m3 3.79 µg/m3 0.14 mg/m3 14.28 °C 56.02 % 1,006.17 mbar 3.42 m/s 237.43 Deg 0.14 µg/m3 0.42 µg/m3
2021-11-29 04:00 1.58 µg/m3 0.42 µg/m3 69.9 µg/m3 10.44 µg/m3 3.99 µg/m3 0.14 mg/m3 14.03 °C 61.65 % 1,005.84 mbar 3.9 m/s 248.93 Deg -0.02 µg/m3 0.44 µg/m3
2021-11-29 03:00 2.8 µg/m3 0.39 µg/m3 70.35 µg/m3 8.29 µg/m3 3.57 µg/m3 0.14 mg/m3 14.55 °C 60.38 % 1,005.53 mbar 3.68 m/s 245.72 Deg 0.58 µg/m3 0.47 µg/m3
2021-11-29 02:00 2.02 µg/m3 0.35 µg/m3 71.97 µg/m3 8.91 µg/m3 4.06 µg/m3 0.15 mg/m3 14.04 °C 68.12 % 1,005.39 mbar 3.19 m/s 248.17 Deg -0.17 µg/m3 0.52 µg/m3
2021-11-29 01:00 3.52 µg/m3 0.31 µg/m3 68.59 µg/m3 6.49 µg/m3 4.61 µg/m3 0.17 mg/m3 13.86 °C 77.37 % 1,005.63 mbar 2.99 m/s 250.98 Deg 0.14 µg/m3 0.76 µg/m3
2021-11-29 00:00 7.48 µg/m3 0.38 µg/m3 66.3 µg/m3 9.29 µg/m3 4.53 µg/m3 0.18 mg/m3 14.51 °C 71.67 % 1,005.53 mbar 2.42 m/s 248.17 Deg 0.47 µg/m3 0.68 µg/m3
2021-11-28 23:00 15.56 µg/m3 0.34 µg/m3 58.63 µg/m3 13.89 µg/m3 6.39 µg/m3 0.23 mg/m3 14.97 °C 69.09 % 1,005.40 mbar 1.95 m/s 239.95 Deg 1.69 µg/m3 1.12 µg/m3
2021-11-28 22:00 14.24 µg/m3 0.35 µg/m3 61.84 µg/m3 16.26 µg/m3 7.08 µg/m3 0.22 mg/m3 15.16 °C 67.29 % 1,005.41 mbar 2.16 m/s 244.5 Deg 1.88 µg/m3 0.79 µg/m3
2021-11-28 21:00 22.12 µg/m3 0.36 µg/m3 57.45 µg/m3 26.42 µg/m3 10.13 µg/m3 0.24 mg/m3 15.67 °C 64.98 % 1,004.87 mbar 1.64 m/s 230.07 Deg 2.5 µg/m3 0.89 µg/m3
2021-11-28 20:00 20.45 µg/m3 0.37 µg/m3 61.48 µg/m3 23.26 µg/m3 10.23 µg/m3 0.25 mg/m3 15.64 °C 66.03 % 1,004.58 mbar 2.31 m/s 242.58 Deg 2.64 µg/m3 1.29 µg/m3
2021-11-28 19:00 17.67 µg/m3 0.43 µg/m3 63.35 µg/m3 11.8 µg/m3 7.25 µg/m3 0.25 mg/m3 15.16 °C 76.48 % 1,004.13 mbar 2.3 m/s 238.5 Deg 1.83 µg/m3 1.47 µg/m3
2021-11-28 18:00 13.96 µg/m3 0.36 µg/m3 65.46 µg/m3 9.85 µg/m3 6.96 µg/m3 0.23 mg/m3 15.16 °C 83.46 % 1,003.42 mbar 2.83 m/s 238.13 Deg 2.21 µg/m3 0.94 µg/m3
2021-11-28 17:00 13.54 µg/m3 0.36 µg/m3 64 µg/m3 6.83 µg/m3 4.8 µg/m3 0.22 mg/m3 15.6 °C 85.63 % 1,003.01 mbar 2.65 m/s 237.57 Deg 1.69 µg/m3 1 µg/m3
2021-11-28 16:00 13.43 µg/m3 0.33 µg/m3 64.81 µg/m3 8.33 µg/m3 4.6 µg/m3 0.2 mg/m3 17.26 °C 73.98 % 1,002.65 mbar 2.62 m/s 219.45 Deg 1.25 µg/m3 0.7 µg/m3
2021-11-28 15:00 13.32 µg/m3 0.38 µg/m3 66.14 µg/m3 6.75 µg/m3 4.29 µg/m3 0.19 mg/m3 16.98 °C 74.33 % 1,002.70 mbar 2.74 m/s 220.23 Deg 0.95 µg/m3 0.63 µg/m3
2021-11-28 14:00 10.7 µg/m3 0.35 µg/m3 68.63 µg/m3 7.59 µg/m3 5 µg/m3 0.19 mg/m3 16.79 °C 75.67 % 1,003.20 mbar 2.77 m/s 216.8 Deg 0.54 µg/m3 0.63 µg/m3
2021-11-28 13:00 10.33 µg/m3 0.38 µg/m3 70.48 µg/m3 7.39 µg/m3 5.05 µg/m3 0.19 mg/m3 15.87 °C 82.3 % 1,003.72 mbar 2.32 m/s 200.62 Deg 1.12 µg/m3 0.89 µg/m3
2021-11-28 12:00 14.6 µg/m3 0.41 µg/m3 67.46 µg/m3 9.12 µg/m3 6.33 µg/m3 0.24 mg/m3 15 °C 89.08 % 1,005.90 mbar 2.25 m/s 200.9 Deg 1.7 µg/m3 1.23 µg/m3
2021-11-28 11:00 13.28 µg/m3 0.41 µg/m3 70.09 µg/m3 8.7 µg/m3 6.16 µg/m3 0.21 mg/m3 14.29 °C 88.65 % 1,006.70 mbar 2.06 m/s 201.1 Deg 1.01 µg/m3 1.26 µg/m3
2021-11-28 10:00 9.43 µg/m3 0.41 µg/m3 75.45 µg/m3 7.69 µg/m3 5.61 µg/m3 0.18 mg/m3 13.77 °C 86.95 % 1,007.16 mbar 2.65 m/s 210.62 Deg 0.61 µg/m3 0.84 µg/m3
2021-11-28 09:00 9.93 µg/m3 0.38 µg/m3 75.81 µg/m3 8.56 µg/m3 6.08 µg/m3 0.18 mg/m3 13.86 °C 82.6 % 1,007.44 mbar 2.63 m/s 217.65 Deg 0.23 µg/m3 0.65 µg/m3
2021-11-28 08:00 8.57 µg/m3 0.38 µg/m3 76.17 µg/m3 9.71 µg/m3 6.6 µg/m3 0.16 mg/m3 14.01 °C 79.68 % 1,006.84 mbar 2.28 m/s 221.13 Deg 0.17 µg/m3 0.49 µg/m3
2021-11-28 07:00 4.61 µg/m3 0.36 µg/m3 80.63 µg/m3 10.25 µg/m3 7 µg/m3 0.15 mg/m3 14.25 °C 77.19 % 1,007.06 mbar 3.51 m/s 221.7 Deg -0 µg/m3 0.42 µg/m3
2021-11-28 06:00 3 µg/m3 0.39 µg/m3 82.04 µg/m3 13.16 µg/m3 6.96 µg/m3 0.13 mg/m3 15.3 °C 66.01 % 1,006.61 mbar 3.86 m/s 222.83 Deg -0.15 µg/m3 0.42 µg/m3
2021-11-28 05:00 2.17 µg/m3 0.39 µg/m3 83.01 µg/m3 23.46 µg/m3 9.53 µg/m3 0.13 mg/m3 17.68 °C 56.42 % 1,006.36 mbar 4.21 m/s 222.3 Deg -0.15 µg/m3 0.42 µg/m3
2021-11-28 04:00 3.13 µg/m3 0.43 µg/m3 80.92 µg/m3 26.88 µg/m3 11.11 µg/m3 0.13 mg/m3 18.2 °C 56.07 % 1,006.14 mbar 4.03 m/s 221.47 Deg -0.04 µg/m3 0.39 µg/m3
2021-11-28 03:00 2.54 µg/m3 0.41 µg/m3 82.88 µg/m3 29.82 µg/m3 10.88 µg/m3 0.13 mg/m3 18.13 °C 52.91 % 1,006.33 mbar 3.66 m/s 221.97 Deg -0.14 µg/m3 0.44 µg/m3
2021-11-28 02:00 3.5 µg/m3 0.36 µg/m3 82.2 µg/m3 33.62 µg/m3 11.82 µg/m3 0.13 mg/m3 18.26 °C 55.49 % 1,006.64 mbar 3.64 m/s 220.73 Deg -0.08 µg/m3 0.44 µg/m3
2021-11-28 01:00 5.37 µg/m3 0.32 µg/m3 80.51 µg/m3 47.02 µg/m3 14.07 µg/m3 0.14 mg/m3 18.29 °C 56.29 % 1,007.21 mbar 3.92 m/s 222.22 Deg 0.12 µg/m3 0.6 µg/m3
2021-11-28 00:00 9.33 µg/m3 0.39 µg/m3 74.69 µg/m3 48.74 µg/m3 14.04 µg/m3 0.16 mg/m3 18.25 °C 54.72 % 1,006.80 mbar 3.16 m/s 223.18 Deg 0.46 µg/m3 0.61 µg/m3
2021-11-27 23:00 11.11 µg/m3 0.42 µg/m3 74.09 µg/m3 51.74 µg/m3 14.72 µg/m3 0.18 mg/m3 18.69 °C 54.32 % 1,007.11 mbar 2.83 m/s 220.63 Deg 0.69 µg/m3 0.92 µg/m3
2021-11-27 22:00 20.13 µg/m3 0.43 µg/m3 64.09 µg/m3 60.39 µg/m3 18.87 µg/m3 0.25 mg/m3 18.45 °C 56.92 % 1,007.56 mbar 1.91 m/s 220.5 Deg 1.63 µg/m3 1.6 µg/m3
2021-11-27 21:00 26.17 µg/m3 0.44 µg/m3 58.06 µg/m3 58.25 µg/m3 18.19 µg/m3 0.3 mg/m3 18.09 °C 54.43 % 1,007.78 mbar 1.77 m/s 223.22 Deg 2.76 µg/m3 1.33 µg/m3
2021-11-27 20:00 28.17 µg/m3 0.48 µg/m3 55.42 µg/m3 42.08 µg/m3 14.76 µg/m3 0.32 mg/m3 17.96 °C 58.61 % 1,007.53 mbar 1.67 m/s 222.17 Deg 4.67 µg/m3 2.89 µg/m3
2021-11-27 19:00 44.26 µg/m3 0.55 µg/m3 36.48 µg/m3 54.54 µg/m3 17.39 µg/m3 0.43 mg/m3 17.41 °C 62.13 % 1,007.02 mbar 0.78 m/s 220.83 Deg 8.64 µg/m3 3.41 µg/m3
2021-11-27 18:00 47.52 µg/m3 0.51 µg/m3 31.47 µg/m3 49.44 µg/m3 15.29 µg/m3 0.38 mg/m3 17.18 °C 62.64 % 1,006.46 mbar 0.97 m/s 230.12 Deg 8.15 µg/m3 2.31 µg/m3
2021-11-27 17:00 35.72 µg/m3 0.5 µg/m3 42.93 µg/m3 40.77 µg/m3 13.7 µg/m3 0.35 mg/m3 17.67 °C 64.39 % 1,005.86 mbar 1.54 m/s 239.6 Deg 5.47 µg/m3 1.63 µg/m3
2021-11-27 16:00 31.55 µg/m3 0.44 µg/m3 50.65 µg/m3 35.04 µg/m3 13.04 µg/m3 0.33 mg/m3 18.47 °C 61.17 % 1,005.04 mbar 1.87 m/s 251.12 Deg 6.28 µg/m3 1.42 µg/m3
2021-11-27 15:00 21.24 µg/m3 0.43 µg/m3 61.63 µg/m3 29.53 µg/m3 11.56 µg/m3 0.25 mg/m3 18.53 °C 62.52 % 1,004.47 mbar 2.44 m/s 264.88 Deg 4.48 µg/m3 1.5 µg/m3
2021-11-27 14:00 23.14 µg/m3 0.46 µg/m3 57.78 µg/m3 30.03 µg/m3 11.32 µg/m3 0.27 mg/m3 17.93 °C 64.85 % 1,003.97 mbar 2.11 m/s 268.28 Deg 6.93 µg/m3 1.15 µg/m3
2021-11-27 13:00 26.74 µg/m3 0.5 µg/m3 54.95 µg/m3 31.35 µg/m3 13.28 µg/m3 0.27 mg/m3 16.81 °C 72.32 % 1,004.55 mbar 1.93 m/s 271.4 Deg 7.62 µg/m3 1.23 µg/m3
2021-11-27 12:00 37.15 µg/m3 0.46 µg/m3 42.65 µg/m3 24.87 µg/m3 16.59 µg/m3 0.34 mg/m3 15.94 °C 78.12 % 1,005.28 mbar 1.4 m/s 278.62 Deg 9.57 µg/m3 1.57 µg/m3
2021-11-27 11:00 49.74 µg/m3 0.69 µg/m3 27.75 µg/m3 25.07 µg/m3 16.71 µg/m3 0.4 mg/m3 15.49 °C 79.03 % 1,006.26 mbar 1.18 m/s 276.78 Deg 16.7 µg/m3 5.07 µg/m3
2021-11-27 10:00 65.93 µg/m3 0.89 µg/m3 11.18 µg/m3 32.59 µg/m3 21.73 µg/m3 0.48 mg/m3 14.99 °C 82.76 % 1,007.02 mbar 1.09 m/s 245.92 Deg 31.89 µg/m3 2.99 µg/m3
2021-11-27 09:00 52.12 µg/m3 0.63 µg/m3 25.02 µg/m3 31.55 µg/m3 20.27 µg/m3 0.32 mg/m3 15.37 °C 77.12 % 1,007.40 mbar 1.12 m/s 228.85 Deg 11.44 µg/m3 1.45 µg/m3
2021-11-27 08:00 55.61 µg/m3 1.27 µg/m3 25.7 µg/m3 130.61 µg/m3 32.42 µg/m3 0.6 mg/m3 17.98 °C 59.24 % 1,006.58 mbar 1.52 m/s 218.22 Deg 53.49 µg/m3 5.64 µg/m3
2021-11-27 07:00 42.34 µg/m3 0.71 µg/m3 33.49 µg/m3 155.74 µg/m3 41.91 µg/m3 0.4 mg/m3 18.37 °C 60.17 % 1,006.35 mbar 1.18 m/s 216.55 Deg 21.65 µg/m3 1.86 µg/m3
2021-11-27 06:00 20.72 µg/m3 0.45 µg/m3 52.06 µg/m3 118.24 µg/m3 32.45 µg/m3 0.2 mg/m3 18.29 °C 59.94 % 1,006.59 mbar 1.21 m/s 215.85 Deg 2.49 µg/m3 1 µg/m3
2021-11-27 05:00 17.97 µg/m3 0.4 µg/m3 56.42 µg/m3 78.57 µg/m3 21 µg/m3 0.19 mg/m3 18.17 °C 59.46 % 1,006.77 mbar 1.2 m/s 223.1 Deg 1.23 µg/m3 0.97 µg/m3
2021-11-27 04:00 13.36 µg/m3 0.46 µg/m3 59.63 µg/m3 58.8 µg/m3 16.34 µg/m3 0.18 mg/m3 18.05 °C 61.3 % 1,007.23 mbar 1.32 m/s 214.57 Deg 0.52 µg/m3 1 µg/m3
2021-11-27 03:00 10.91 µg/m3 0.41 µg/m3 63.62 µg/m3 34.61 µg/m3 9.73 µg/m3 0.19 mg/m3 18.06 °C 61.51 % 1,008.15 mbar 1.55 m/s 217.12 Deg 0.33 µg/m3 1.03 µg/m3
2021-11-27 02:00 22.91 µg/m3 0.45 µg/m3 54.27 µg/m3 26.08 µg/m3 7.66 µg/m3 0.24 mg/m3 17.78 °C 60.24 % 1,008.91 mbar 1.34 m/s 221.48 Deg 1.79 µg/m3 1.71 µg/m3
2021-11-27 01:00 57.7 µg/m3 1.01 µg/m3 19.34 µg/m3 37.84 µg/m3 11.92 µg/m3 0.64 mg/m3 16.73 °C 62.08 % 1,009.39 mbar 0.85 m/s 237.33 Deg 30.95 µg/m3 5.37 µg/m3
2021-11-27 00:00 68.57 µg/m3 1.53 µg/m3 3.27 µg/m3 30.41 µg/m3 15.62 µg/m3 0.93 mg/m3 15.67 °C 68.26 % 1,009.56 mbar 0.68 m/s 233 Deg 70.94 µg/m3 5.77 µg/m3
2021-11-26 23:00 59.53 µg/m3 0.91 µg/m3 18.49 µg/m3 41.11 µg/m3 10.63 µg/m3 0.56 mg/m3 16.35 °C 62.88 % 1,009.90 mbar 1.01 m/s 230.27 Deg 30.55 µg/m3 3.67 µg/m3
2021-11-26 22:00 64.7 µg/m3 0.96 µg/m3 18.04 µg/m3 47.45 µg/m3 11.63 µg/m3 0.6 mg/m3 16.79 °C 60.23 % 1,010.01 mbar 1.08 m/s 227.12 Deg 31.55 µg/m3 4.04 µg/m3
2021-11-26 21:00 45.85 µg/m3 0.61 µg/m3 37.86 µg/m3 36.46 µg/m3 9.25 µg/m3 0.39 mg/m3 17.19 °C 56.02 % 1,009.97 mbar 1.6 m/s 226.42 Deg 11.68 µg/m3 1.96 µg/m3
2021-11-26 20:00 32.57 µg/m3 0.45 µg/m3 50.09 µg/m3 25.39 µg/m3 6.84 µg/m3 0.29 mg/m3 17.25 °C 56.02 % 1,009.88 mbar 2.05 m/s 223.63 Deg 4.3 µg/m3 1.49 µg/m3
2021-11-26 19:00 39.74 µg/m3 0.51 µg/m3 43.37 µg/m3 36.31 µg/m3 8.38 µg/m3 0.33 mg/m3 17.24 °C 57.98 % 1,009.85 mbar 1.83 m/s 222.55 Deg 6.19 µg/m3 2.83 µg/m3
2021-11-26 18:00 41.8 µg/m3 0.54 µg/m3 41.75 µg/m3 26.82 µg/m3 7.2 µg/m3 0.34 mg/m3 17.24 °C 56.1 % 1,009.44 mbar 2.06 m/s 225.13 Deg 8.73 µg/m3 3.15 µg/m3
2021-11-26 17:00 42.54 µg/m3 0.61 µg/m3 42.06 µg/m3 36.85 µg/m3 9.65 µg/m3 0.32 mg/m3 17.58 °C 55.4 % 1,008.85 mbar 2.01 m/s 223.9 Deg 7.64 µg/m3 1.89 µg/m3
2021-11-26 16:00 33.69 µg/m3 0.5 µg/m3 50.72 µg/m3 45.8 µg/m3 10.09 µg/m3 0.28 mg/m3 18.34 °C 51.62 % 1,008.42 mbar 2.93 m/s 233.98 Deg 9.18 µg/m3 2.1 µg/m3
2021-11-26 15:00 25.98 µg/m3 0.47 µg/m3 55.32 µg/m3 33.24 µg/m3 7.67 µg/m3 0.24 mg/m3 18.96 °C 50.06 % 1,008.13 mbar 3.11 m/s 226.34 Deg 7.66 µg/m3 1.63 µg/m3
2021-11-26 14:00 21.37 µg/m3 0.42 µg/m3 58.59 µg/m3 30.08 µg/m3 7.44 µg/m3 0.24 mg/m3 19.18 °C 51.3 % 1,008.29 mbar 3.76 m/s 225.12 Deg 6.52 µg/m3 1.42 µg/m3
2021-11-26 13:00 20.82 µg/m3 0.45 µg/m3 60.75 µg/m3 24.61 µg/m3 7.6 µg/m3 0.24 mg/m3 19.44 °C 55.8 % 1,008.02 mbar 3.95 m/s 229.67 Deg 6.9 µg/m3 1.99 µg/m3
2021-11-26 12:00 18.41 µg/m3 0.42 µg/m3 57.26 µg/m3 25.38 µg/m3 8.75 µg/m3 0.22 mg/m3 19.46 °C 62.29 % 1,008.28 mbar 3.74 m/s 224.87 Deg 6.08 µg/m3 1.5 µg/m3
2021-11-26 11:00 23.23 µg/m3 0.52 µg/m3 53.18 µg/m3 22.86 µg/m3 7.49 µg/m3 0.23 mg/m3 19.38 °C 61.26 % 1,008.38 mbar 3.31 m/s 217.97 Deg 6.26 µg/m3 2.52 µg/m3
2021-11-26 10:00 67.92 µg/m3 2.07 µg/m3 17.11 µg/m3 54.22 µg/m3 18.73 µg/m3 0.88 mg/m3 18.42 °C 66.53 % 1,008.36 mbar 0.95 m/s 225.02 Deg 96.63 µg/m3 12.42 µg/m3
2021-11-26 09:00 90.5 µg/m3 4.19 µg/m3 4.42 µg/m3 76.47 µg/m3 30.53 µg/m3 1.79 mg/m3 17.08 °C 73.27 % 1,008.20 mbar 0.17 m/s 173.75 Deg 245.68 µg/m3 16.93 µg/m3
2021-11-26 08:00 78.99 µg/m3 5.22 µg/m3 3.73 µg/m3 50.54 µg/m3 33.9 µg/m3 2.11 mg/m3 14.82 °C 85.81 % 1,007.91 mbar 0.55 m/s 242.52 Deg 322.37 µg/m3 19.63 µg/m3
2021-11-26 07:00 65.53 µg/m3 3.19 µg/m3 2.87 µg/m3 35.06 µg/m3 23.91 µg/m3 1.56 mg/m3 14.71 °C 86.03 % 1,007.55 mbar 0.7 m/s 253 Deg 206.94 µg/m3 8.4 µg/m3
2021-11-26 06:00 53.54 µg/m3 0.84 µg/m3 7.31 µg/m3 17.96 µg/m3 12.21 µg/m3 0.48 mg/m3 14.82 °C 83.6 % 1,007.05 mbar 0.59 m/s 244.68 Deg 36.59 µg/m3 3.23 µg/m3
2021-11-26 05:00 18.39 µg/m3 0.32 µg/m3 50.75 µg/m3 12.01 µg/m3 8.12 µg/m3 0.19 mg/m3 15.15 °C 79.46 % 1,006.81 mbar 1.04 m/s 235.77 Deg 1.26 µg/m3 0.68 µg/m3
2021-11-26 04:00 8.87 µg/m3 0.97 µg/m3 61.1 µg/m3 12.38 µg/m3 9 µg/m3 0.16 mg/m3 16 °C 77.8 % 1,006.81 mbar 1.31 m/s 240.53 Deg 0.14 µg/m3 1.21 µg/m3
2021-11-26 03:00 9.39 µg/m3 0.25 µg/m3 55.5 µg/m3 10.09 µg/m3 7.73 µg/m3 0.14 mg/m3 16.26 °C 77.16 % 1,006.60 mbar 0.91 m/s 227.22 Deg -0.2 µg/m3 0.65 µg/m3
2021-11-26 02:00 9.87 µg/m3 0.29 µg/m3 58.84 µg/m3 10.09 µg/m3 7.74 µg/m3 0.15 mg/m3 16.44 °C 76.42 % 1,006.39 mbar 1.13 m/s 233.47 Deg -0.05 µg/m3 1.15 µg/m3
2021-11-26 01:00 39.05 µg/m3 0.61 µg/m3 24.11 µg/m3 17.45 µg/m3 12.43 µg/m3 0.41 mg/m3 16.29 °C 80.78 % 1,006.61 mbar 0.88 m/s 235.35 Deg 17.81 µg/m3 5.56 µg/m3
2021-11-26 00:00 57.07 µg/m3 0.96 µg/m3 3.24 µg/m3 30.58 µg/m3 21.53 µg/m3 0.73 mg/m3 16.61 °C 83.52 % 1,006.79 mbar 0.18 m/s 248.64 Deg 42.54 µg/m3 5.06 µg/m3
2021-11-25 23:00 39.64 µg/m3 0.43 µg/m3 26.44 µg/m3 24.79 µg/m3 17.16 µg/m3 0.37 mg/m3 16.97 °C 82.4 % 1,007.13 mbar 0.55 m/s 191.78 Deg 9.79 µg/m3 1.76 µg/m3
2021-11-25 22:00 42.81 µg/m3 0.35 µg/m3 28.14 µg/m3 22.04 µg/m3 14.99 µg/m3 0.38 mg/m3 17.51 °C 79.61 % 1,007.04 mbar 0.94 m/s 251.62 Deg 8.56 µg/m3 2.13 µg/m3
2021-11-25 21:00 34.55 µg/m3 0.32 µg/m3 41.42 µg/m3 23.41 µg/m3 16.94 µg/m3 0.33 mg/m3 17.95 °C 79.27 % 1,006.59 mbar 1.17 m/s 271.3 Deg 6.68 µg/m3 1.61 µg/m3
2021-11-25 20:00 30.91 µg/m3 0.25 µg/m3 46.04 µg/m3 16.69 µg/m3 11.82 µg/m3 0.3 mg/m3 17.71 °C 80.4 % 1,006.30 mbar 1.81 m/s 250.68 Deg 3.63 µg/m3 2.6 µg/m3
2021-11-25 19:00 53.32 µg/m3 0.55 µg/m3 17.5 µg/m3 21.38 µg/m3 14.71 µg/m3 0.53 mg/m3 18.73 °C 85.26 % 1,006.03 mbar 1.14 m/s 271.15 Deg 19.11 µg/m3 5.14 µg/m3
2021-11-25 18:00 64.83 µg/m3 0.86 µg/m3 8.26 µg/m3 27.02 µg/m3 18.29 µg/m3 0.76 mg/m3 19.3 °C 83.34 % 1,005.37 mbar 0.73 m/s 246.1 Deg 36.53 µg/m3 7.42 µg/m3
2021-11-25 17:00 60.52 µg/m3 0.74 µg/m3 16.14 µg/m3 28.8 µg/m3 19.37 µg/m3 0.7 mg/m3 20.09 °C 78.62 % 1,005.33 mbar 0.77 m/s 218.93 Deg 29.74 µg/m3 3.85 µg/m3
2021-11-25 16:00 33.49 µg/m3 0.35 µg/m3 47.26 µg/m3 23.12 µg/m3 14.33 µg/m3 0.35 mg/m3 20.73 °C 76.41 % 1,005.30 mbar 1.54 m/s 215.5 Deg 5.4 µg/m3 1.94 µg/m3
2021-11-25 15:00 21.11 µg/m3 0.3 µg/m3 59.87 µg/m3 25.46 µg/m3 15.36 µg/m3 0.25 mg/m3 20.92 °C 76.61 % 1,005.62 mbar 2.42 m/s 215.62 Deg 3.47 µg/m3 1.61 µg/m3
2021-11-25 14:00 26.1 µg/m3 0.41 µg/m3 49.93 µg/m3 21.73 µg/m3 14.87 µg/m3 0.3 mg/m3 19.74 °C 83.01 % 1,006.27 mbar 1.42 m/s 144.8 Deg 13.25 µg/m3 2.34 µg/m3
2021-11-25 13:00 58.24 µg/m3 0.91 µg/m3 20.84 µg/m3 18.09 µg/m3 14.2 µg/m3 0.48 mg/m3 17.61 °C 90.84 % 1,007.38 mbar 0.77 m/s 237.25 Deg 42.79 µg/m3 3.67 µg/m3
2021-11-25 12:00 50.92 µg/m3 0.7 µg/m3 30.56 µg/m3 12.53 µg/m3 11.09 µg/m3 0.36 mg/m3 16.09 °C 91.5 % 1,008.38 mbar 1.61 m/s 315.25 Deg 30.18 µg/m3 1.6 µg/m3
2021-11-25 11:00 30.63 µg/m3 0.43 µg/m3 52.97 µg/m3 7.93 µg/m3 7.01 µg/m3 0.22 mg/m3 16.96 °C 88.82 % 1,009.03 mbar 2.8 m/s 274.07 Deg 5.95 µg/m3 1 µg/m3
2021-11-25 10:00 47.78 µg/m3 0.67 µg/m3 28.17 µg/m3 11.41 µg/m3 10.42 µg/m3 0.25 mg/m3 18.24 °C 89.61 % 1,009.26 mbar 4.03 m/s 67.1 Deg 32.67 µg/m3 2.54 µg/m3
2021-11-25 09:00 38.29 µg/m3 0.84 µg/m3 42.32 µg/m3 11.08 µg/m3 10.35 µg/m3 0.34 mg/m3 17.27 °C 89.29 % 1,010.66 mbar 3.07 m/s 85.52 Deg 39.21 µg/m3 1.78 µg/m3
2021-11-25 08:00 25.8 µg/m3 0.63 µg/m3 52.05 µg/m3 17.04 µg/m3 12.7 µg/m3 0.29 mg/m3 17.6 °C 88.31 % 1,010.49 mbar 4.83 m/s 60.1 Deg 26.41 µg/m3 2.65 µg/m3
2021-11-25 07:00 36.3 µg/m3 0.66 µg/m3 41.67 µg/m3 18.68 µg/m3 12.91 µg/m3 0.28 mg/m3 17.6 °C 85.91 % 1,010.99 mbar 2.85 m/s 70.37 Deg 26.58 µg/m3 1.31 µg/m3
2021-11-25 06:00 24.06 µg/m3 0.57 µg/m3 65.02 µg/m3 10.29 µg/m3 7.71 µg/m3 0.23 mg/m3 18.31 °C 79.82 % 1,011.16 mbar 2.6 m/s 63.22 Deg 9.58 µg/m3 1.31 µg/m3
2021-11-25 05:00 39.14 µg/m3 0.84 µg/m3 22.42 µg/m3 18.39 µg/m3 13.39 µg/m3 0.37 mg/m3 17.04 °C 79.72 % 1,011.78 mbar 0.77 m/s 122.15 Deg 16.47 µg/m3 6.38 µg/m3
2021-11-25 04:00 40.96 µg/m3 1.06 µg/m3 3.8 µg/m3 24.66 µg/m3 18.34 µg/m3 0.48 mg/m3 15.93 °C 81.97 % 1,012.54 mbar 0.63 m/s 251.73 Deg 23.01 µg/m3 7.05 µg/m3
2021-11-25 03:00 39.85 µg/m3 1.17 µg/m3 2.74 µg/m3 30.83 µg/m3 22.03 µg/m3 0.62 mg/m3 15.26 °C 84.25 % 1,013.19 mbar 0.84 m/s 238.18 Deg 35.79 µg/m3 8.85 µg/m3
2021-11-25 02:00 40.84 µg/m3 1.58 µg/m3 3.76 µg/m3 36.59 µg/m3 25.31 µg/m3 0.91 mg/m3 15.17 °C 83.9 % 1,013.60 mbar 0.8 m/s 243.17 Deg 60.23 µg/m3 11.07 µg/m3
2021-11-25 01:00 43.02 µg/m3 2.22 µg/m3 4.14 µg/m3 46.9 µg/m3 31.38 µg/m3 1.22 mg/m3 14.98 °C 84.6 % 1,014.21 mbar 0.9 m/s 238.1 Deg 97.29 µg/m3 12.94 µg/m3
2021-11-25 00:00 47.05 µg/m3 2.59 µg/m3 5.41 µg/m3 56.67 µg/m3 37.8 µg/m3 1.45 mg/m3 15.22 °C 84.29 % 1,014.79 mbar 0.79 m/s 238.68 Deg 123.01 µg/m3 15.04 µg/m3
2021-11-24 23:00 51.41 µg/m3 3.09 µg/m3 5.87 µg/m3 70.51 µg/m3 47.01 µg/m3 1.69 mg/m3 15.58 °C 83.22 % 1,015.27 mbar 0.55 m/s 240.95 Deg 153.72 µg/m3 17.13 µg/m3
2021-11-24 22:00 60.66 µg/m3 3.85 µg/m3 5.79 µg/m3 83.24 µg/m3 55.5 µg/m3 2.19 mg/m3 16.04 °C 81.83 % 1,015.53 mbar 0.69 m/s 237.71 Deg 207.81 µg/m3 19.95 µg/m3
2021-11-24 21:00 71.87 µg/m3 3.87 µg/m3 6.34 µg/m3 75.08 µg/m3 50.06 µg/m3 2.15 mg/m3 16.61 °C 79.62 % 1,015.66 mbar 0.56 m/s 235.07 Deg 212.92 µg/m3 20 µg/m3
2021-11-24 20:00 81.47 µg/m3 4 µg/m3 5.01 µg/m3 60.92 µg/m3 40.61 µg/m3 2.19 mg/m3 17.42 °C 75.29 % 1,015.71 mbar 0.72 m/s 236.8 Deg 220.36 µg/m3 21.63 µg/m3
2021-11-24 19:00 89.52 µg/m3 1.93 µg/m3 3.12 µg/m3 46.89 µg/m3 25.33 µg/m3 1.19 mg/m3 18.31 °C 70.24 % 1,015.53 mbar 0.32 m/s 164.22 Deg 97.04 µg/m3 7.66 µg/m3
2021-11-24 18:00 78.97 µg/m3 1.71 µg/m3 10.43 µg/m3 65.27 µg/m3 20.1 µg/m3 1.09 mg/m3 18.64 °C 68.44 % 1,015.42 mbar 0.74 m/s 70.17 Deg 88.13 µg/m3 8.8 µg/m3
2021-11-24 17:00 60.16 µg/m3 1.11 µg/m3 33.47 µg/m3 44.24 µg/m3 15.03 µg/m3 0.68 mg/m3 18.91 °C 67.28 % 1,015.31 mbar 1.26 m/s 65.93 Deg 54.27 µg/m3 4.43 µg/m3
2021-11-24 16:00 44.29 µg/m3 0.95 µg/m3 52.62 µg/m3 31.51 µg/m3 9.61 µg/m3 0.5 mg/m3 19.59 °C 64.68 % 1,015.33 mbar 1.34 m/s 42.27 Deg 41.49 µg/m3 3.52 µg/m3
2021-11-24 15:00 41.99 µg/m3 0.83 µg/m3 55.84 µg/m3 36.67 µg/m3 10.15 µg/m3 0.52 mg/m3 19.89 °C 63.75 % 1,015.35 mbar 1.15 m/s 28.7 Deg 37.69 µg/m3 3.12 µg/m3
2021-11-24 14:00 41.36 µg/m3 0.89 µg/m3 57.69 µg/m3 37.05 µg/m3 11.16 µg/m3 0.47 mg/m3 19.53 °C 65.2 % 1,015.60 mbar 1.45 m/s 32.77 Deg 38.96 µg/m3 4.04 µg/m3
2021-11-24 13:00 44.4 µg/m3 0.94 µg/m3 50.41 µg/m3 49.2 µg/m3 13.88 µg/m3 0.51 mg/m3 19.43 °C 65.8 % 1,015.94 mbar 1.58 m/s 32.77 Deg 44.76 µg/m3 1.68 µg/m3
2021-11-24 12:00 35.68 µg/m3 0.64 µg/m3 55.13 µg/m3 41.45 µg/m3 10.9 µg/m3 0.37 mg/m3 19.71 °C 64.6 % 1,016.43 mbar 1.22 m/s 201.15 Deg 16.16 µg/m3 2.02 µg/m3
2021-11-24 11:00 33.31 µg/m3 0.68 µg/m3 53.9 µg/m3 31.18 µg/m3 9.29 µg/m3 0.34 mg/m3 19.81 °C 64.33 % 1,017.01 mbar 1.21 m/s 271.98 Deg 13.31 µg/m3 2.49 µg/m3
2021-11-24 10:00 72.35 µg/m3 2.09 µg/m3 19.67 µg/m3 99.46 µg/m3 29.25 µg/m3 0.88 mg/m3 18.72 °C 70.32 % 1,017.28 mbar 1 m/s 219.97 Deg 91.59 µg/m3 12.7 µg/m3
2021-11-24 09:00 78.3 µg/m3 3.41 µg/m3 4.46 µg/m3 114.16 µg/m3 45 µg/m3 1.46 mg/m3 16.62 °C 77.95 % 1,017.10 mbar 0.86 m/s 216.43 Deg 192.09 µg/m3 15.43 µg/m3
2021-11-24 08:00 63.66 µg/m3 2.64 µg/m3 2.82 µg/m3 45.25 µg/m3 30.17 µg/m3 1.23 mg/m3 14.94 °C 83.52 % 1,016.84 mbar 0.81 m/s 218.22 Deg 141.7 µg/m3 8.73 µg/m3
2021-11-24 07:00 52.98 µg/m3 2.23 µg/m3 2.03 µg/m3 42.06 µg/m3 28.04 µg/m3 1.13 mg/m3 14.59 °C 85.17 % 1,016.51 mbar 0.73 m/s 237.02 Deg 112.21 µg/m3 8.14 µg/m3
2021-11-24 06:00 39.41 µg/m3 0.77 µg/m3 6.52 µg/m3 34.23 µg/m3 22.98 µg/m3 0.46 mg/m3 14.61 °C 85.27 % 1,016.40 mbar 0.83 m/s 235.23 Deg 23.27 µg/m3 4.72 µg/m3
2021-11-24 05:00 25.63 µg/m3 0.47 µg/m3 15.31 µg/m3 25.52 µg/m3 17.42 µg/m3 0.26 mg/m3 14.7 °C 85.12 % 1,016.06 mbar 0.93 m/s 235.73 Deg 4.56 µg/m3 2.13 µg/m3
2021-11-24 04:00 18.94 µg/m3 0.62 µg/m3 23.94 µg/m3 18.81 µg/m3 13.27 µg/m3 0.28 mg/m3 14.95 °C 84.33 % 1,016.11 mbar 0.72 m/s 231.62 Deg 0.63 µg/m3 2.89 µg/m3
2021-11-24 03:00 25.08 µg/m3 0.45 µg/m3 16.77 µg/m3 21.04 µg/m3 14.49 µg/m3 0.3 mg/m3 15.08 °C 83.9 % 1,016.17 mbar 0.93 m/s 233.88 Deg 1.01 µg/m3 3.15 µg/m3
2021-11-24 02:00 31.01 µg/m3 0.53 µg/m3 16.1 µg/m3 23.79 µg/m3 16.17 µg/m3 0.34 mg/m3 15.34 °C 82.57 % 1,016.16 mbar 0.93 m/s 229.25 Deg 1.43 µg/m3 3.85 µg/m3
2021-11-24 01:00 42.27 µg/m3 0.63 µg/m3 10.84 µg/m3 32.12 µg/m3 21.57 µg/m3 0.44 mg/m3 15.62 °C 81.65 % 1,016.18 mbar 0.93 m/s 236.62 Deg 6.28 µg/m3 5.53 µg/m3
2021-11-24 00:00 49.53 µg/m3 0.79 µg/m3 9.28 µg/m3 29.74 µg/m3 19.88 µg/m3 0.6 mg/m3 15.9 °C 80.38 % 1,016.44 mbar 0.91 m/s 235.33 Deg 18.65 µg/m3 5.54 µg/m3
2021-11-23 23:00 58.07 µg/m3 1.08 µg/m3 4.98 µg/m3 34.94 µg/m3 23.3 µg/m3 0.7 mg/m3 16.31 °C 79.49 % 1,016.65 mbar 0.83 m/s 239 Deg 40.22 µg/m3 9.42 µg/m3
2021-11-23 22:00 64.03 µg/m3 1.06 µg/m3 4.69 µg/m3 44.48 µg/m3 29.66 µg/m3 0.79 mg/m3 16.72 °C 78.17 % 1,016.35 mbar 0.74 m/s 232.5 Deg 37.6 µg/m3 7.82 µg/m3
2021-11-23 21:00 71.53 µg/m3 1.08 µg/m3 3.9 µg/m3 37.05 µg/m3 24.7 µg/m3 0.88 mg/m3 17.49 °C 76.43 % 1,016.03 mbar 0.71 m/s 231.03 Deg 42.98 µg/m3 5.96 µg/m3
2021-11-23 20:00 75.9 µg/m3 0.7 µg/m3 10.23 µg/m3 25.96 µg/m3 17.31 µg/m3 0.71 mg/m3 18.16 °C 73.06 % 1,015.78 mbar 0.7 m/s 231.92 Deg 18.57 µg/m3 4.72 µg/m3
2021-11-23 19:00 66.77 µg/m3 0.56 µg/m3 20.22 µg/m3 25.34 µg/m3 16.91 µg/m3 0.6 mg/m3 18.58 °C 72.74 % 1,015.43 mbar 0.95 m/s 252.97 Deg 12.36 µg/m3 3.31 µg/m3
2021-11-23 18:00 57.53 µg/m3 0.51 µg/m3 32.29 µg/m3 40.73 µg/m3 15.04 µg/m3 0.5 mg/m3 18.95 °C 72 % 1,014.86 mbar 1.3 m/s 262.97 Deg 9.35 µg/m3 2.62 µg/m3
2021-11-23 17:00 47.06 µg/m3 0.45 µg/m3 42.88 µg/m3 45.21 µg/m3 15.28 µg/m3 0.4 mg/m3 19.77 °C 70.87 % 1,014.30 mbar 1.53 m/s 279.77 Deg 8.4 µg/m3 2.03 µg/m3
2021-11-23 16:00 38.93 µg/m3 0.43 µg/m3 51.36 µg/m3 64.94 µg/m3 16.6 µg/m3 0.35 mg/m3 20.84 °C 64.75 % 1,013.84 mbar 2.2 m/s 257.42 Deg 9.67 µg/m3 2.39 µg/m3
2021-11-23 15:00 28.97 µg/m3 0.44 µg/m3 51.53 µg/m3 39.01 µg/m3 12.52 µg/m3 0.31 mg/m3 21.3 °C 64.35 % 1,013.54 mbar 2.47 m/s 248.18 Deg 8.68 µg/m3 1.36 µg/m3
2021-11-23 14:00 24.18 µg/m3 0.43 µg/m3 51.73 µg/m3 39.35 µg/m3 12.76 µg/m3 0.3 mg/m3 21.52 °C 63.41 % 1,013.49 mbar 2.6 m/s 256.47 Deg 8.75 µg/m3 1.84 µg/m3
2021-11-23 13:00 23.34 µg/m3 0.48 µg/m3 49.61 µg/m3 42.11 µg/m3 13.43 µg/m3 0.28 mg/m3 21.63 °C 64.62 % 1,013.66 mbar 2.52 m/s 237.73 Deg 8.65 µg/m3 2.57 µg/m3
2021-11-23 12:00 21.83 µg/m3 0.51 µg/m3 51.17 µg/m3 43.31 µg/m3 13.63 µg/m3 0.26 mg/m3 21.36 °C 67.36 % 1,013.99 mbar 2.56 m/s 229.65 Deg 7.22 µg/m3 2.36 µg/m3
2021-11-23 11:00 24.58 µg/m3 0.59 µg/m3 50.69 µg/m3 35.98 µg/m3 11.87 µg/m3 0.26 mg/m3 21.29 °C 66.08 % 1,014.11 mbar 2.69 m/s 221.48 Deg 6.95 µg/m3 1.55 µg/m3
2021-11-23 10:00 44.89 µg/m3 1.03 µg/m3 34.19 µg/m3 54.58 µg/m3 15.66 µg/m3 0.39 mg/m3 20.85 °C 67.74 % 1,013.91 mbar 2.09 m/s 217.35 Deg 21.77 µg/m3 5.56 µg/m3
2021-11-23 09:00 73.06 µg/m3 3.72 µg/m3 5.26 µg/m3 106.5 µg/m3 44.04 µg/m3 1.47 mg/m3 18.51 °C 76.03 % 1,013.56 mbar 0.81 m/s 216.75 Deg 193.96 µg/m3 19.44 µg/m3
2021-11-23 08:00 57.35 µg/m3 4.87 µg/m3 3.37 µg/m3 59.13 µg/m3 39.42 µg/m3 2.1 mg/m3 16.25 °C 82.83 % 1,013.33 mbar 0.63 m/s 231.37 Deg 294.48 µg/m3 21.26 µg/m3
2021-11-23 07:00 54.49 µg/m3 4.25 µg/m3 3.14 µg/m3 45.37 µg/m3 30.24 µg/m3 1.95 mg/m3 16.06 °C 82.83 % 1,012.89 mbar 0.38 m/s 240.97 Deg 269.42 µg/m3 14.73 µg/m3
2021-11-23 06:00 42.01 µg/m3 1.18 µg/m3 3.02 µg/m3 24.61 µg/m3 16.43 µg/m3 0.62 mg/m3 16.12 °C 81.84 % 1,012.75 mbar 0.18 m/s 281.28 Deg 50.51 µg/m3 5.62 µg/m3
2021-11-23 05:00 23.97 µg/m3 0.48 µg/m3 17.72 µg/m3 16.42 µg/m3 11.2 µg/m3 0.27 mg/m3 16.02 °C 80.9 % 1,012.66 mbar 0.92 m/s 237.98 Deg 2.54 µg/m3 2.54 µg/m3
2021-11-23 04:00 24.55 µg/m3 1.32 µg/m3 18.1 µg/m3 19.02 µg/m3 13.3 µg/m3 0.39 mg/m3 16.1 °C 81.74 % 1,012.58 mbar 1.52 m/s 235.93 Deg 1.32 µg/m3 3.65 µg/m3
2021-11-23 03:00 26.97 µg/m3 0.5 µg/m3 13.49 µg/m3 19.82 µg/m3 13.63 µg/m3 0.34 mg/m3 16.21 °C 81.66 % 1,012.85 mbar 1.31 m/s 236.55 Deg 1.42 µg/m3 2.87 µg/m3

It is to be noted that the data is provisional and subject to quality assurance procedures. For validated data kindly refer your request to contact.air@era.org.mt